RH
4 4 4 4 4 4 4 4 3 4 3 3 4 4 4 4 4 4 4 4 5 4 4 4 4 4 4 3 3 3 3 3 3 3 3 3 3 3 3 3 3 3 3 4 5 5 5 6 6 7 7 8 8 8 8 8 8 8 9 12 17 23 29
4 4 4 4 4 4 4 4 3 4 3 3 3 3 3 4 3 4 4 4 4 4 4 4 4 4 4 3 3 3 3 3 3 2 2 2 3 3 3 3 3 3 3 3 4 4 5 5 5 5 6 7 7 7 7 7 8 8 8 8 10 14 20
4 4 4 4 4 4 4 4 3 4 3 3 3 3 3 4 4 4 4 4 4 4 3 3 3 3 3 3 3 3 3 3 3 3 2 2 2 2 2 2 3 3 3 3 4 4 4 4 4 5 5 5 6 6 6 7 7 7 8 8 8 9 13
4 4 4 4 4 4 4 4 4 3 4 3 3 4 4 4 4 4 4 4 4 3 3 3 3 3 3 3 3 3 3 3 3 3 3 3 3 2 2 2 2 2 2 3 3 4 4 4 4 4 5 5 5 5 6 6 6 7 7 8 8 8 9
4 4 4 4 4 4 4 4 4 3 4 4 4 4 4 4 4 4 4 4 4 4 3 3 3 3 3 3 2 3 3 3 2 3 3 3 3 3 2 2 2 2 2 2 3 3 4 4 4 4 4 4 4 5 5 5 5 6 6 7 7 8 8
4 4 4 4 4 4 4 3 3 3 3 3 4 4 4 4 4 4 4 4 4 4 3 3 3 3 2 3 3 3 3 3 3 3 3 3 3 3 3 3 2 2 2 2 2 3 3 4 4 4 4 4 4 4 4 5 5 5 6 6 7 7 8
4 4 3 4 3 3 3 3 3 3 3 3 3 4 4 4 4 4 4 4 3 3 3 3 3 3 3 3 3 3 3 3 3 2 3 3 2 2 2 2 3 3 2 2 2 2 3 3 3 4 4 4 4 4 4 4 4 5 5 5 6 6 7
4 4 3 3 3 3 3 3 3 3 3 3 4 4 4 4 4 4 4 4 3 3 3 3 3 2 3 3 3 3 3 3 3 3 2 3 2 2 2 2 2 2 2 3 2 3 3 3 3 3 4 4 4 4 4 4 4 4 4 5 5 5 6
4 3 4 3 3 3 3 3 3 3 3 4 4 4 4 4 4 4 4 3 3 3 3 3 3 3 3 3 3 3 3 2 2 2 2 3 2 2 2 2 2 2 2 2 2 3 3 3 3 3 3 4 4 4 4 4 4 4 4 4 5 5 6
4 4 4 4 4 4 4 4 4 4 4 4 4 4 4 4 4 4 4 3 3 3 3 3 3 3 3 3 3 2 3 2 2 2 2 2 2 2 2 2 2 2 2 2 2 3 3 3 3 3 3 3 3 4 4 4 4 4 4 4 4 4 5
4 4 4 4 4 4 4 4 4 4 4 4 4 4 4 4 4 4 3 3 3 3 3 3 3 3 3 3 3 3 3 2 2 2 2 2 2 2 2 2 2 2 2 2 2 2 2 3 3 3 3 3 3 3 3 4 4 4 4 4 3 4 5
4 4 4 4 4 4 4 4 4 4 4 4 4 4 4 4 4 4 3 3 3 3 3 3 3 3 3 2 2 2 2 2 2 2 2 2 2 2 2 2 2 2 2 2 2 2 2 3 3 3 3 3 3 3 3 3 3 4 4 4 3 3 4
4 4 4 4 4 4 4 4 4 4 4 5 4 4 4 4 4 4 3 3 3 3 3 4 3 3 3 2 2 2 2 2 2 2 2 3 2 2 2 2 2 2 2 2 2 2 2 2 3 3 3 3 3 3 3 3 3 3 4 4 4 4 4
4 4 4 4 4 4 4 4 4 4 4 5 5 4 4 4 4 3 3 3 3 3 4 4 4 3 3 2 2 2 2 2 2 3 3 3 3 3 2 2 2 2 2 2 2 2 2 2 2 3 3 3 3 3 3 3 3 3 3 3 3 4 3
5 4 4 4 4 4 4 4 4 5 5 5 5 4 4 4 4 3 3 3 3 4 4 4 4 3 3 3 2 2 2 3 2 3 3 3 3 3 2 2 2 2 2 2 2 2 2 2 2 2 3 2 2 2 2 3 3 2 3 3 3 3 4
5 5 4 4 5 5 5 4 4 5 5 5 5 4 4 4 4 4 3 3 3 3 4 4 4 4 3 3 3 3 2 2 2 2 3 3 3 3 3 3 2 2 2 2 2 2 2 2 2 2 3 3 2 2 2 2 3 2 2 3 3 3 4
5 5 5 5 5 5 5 4 4 5 5 5 5 4 4 4 4 4 3 3 4 3 4 4 4 4 4 3 3 3 2 2 3 3 3 3 3 3 3 3 2 2 2 2 2 2 2 2 2 2 2 3 2 2 3 2 2 3 2 2 3 3 3
5 5 5 5 5 5 5 5 5 5 5 5 5 4 4 4 4 4 3 3 3 3 3 4 4 4 4 3 3 3 3 2 2 3 3 3 3 3 2 3 2 2 2 2 2 2 2 2 2 2 2 2 2 2 2 2 2 3 3 2 2 3 3
5 5 5 5 5 5 5 5 5 5 5 5 5 4 4 4 4 4 3 3 3 3 3 3 4 4 4 3 3 3 3 3 2 3 3 3 3 3 2 2 2 2 2 2 2 2 2 2 2 2 2 2 2 2 2 2 3 2 3 3 2 3 3
5 5 5 5 5 5 5 5 5 5 6 5 5 5 4 4 4 4 3 3 3 3 4 3 3 4 4 4 4 3 3 3 3 3 3 3 3 3 3 3 3 3 2 2 2 2 2 2 2 2 2 2 2 2 2 2 3 2 2 3 3 3 3
5 5 5 5 5 5 5 5 5 6 6 6 5 5 5 5 5 4 4 4 3 4 4 4 4 4 4 4 3 3 3 3 3 3 3 3 3 3 3 3 2 3 3 2 3 2 2 3 2 2 3 2 2 2 2 2 3 3 2 3 3 3 3
5 5 5 5 5 5 5 5 5 6 6 6 6 5 5 5 5 5 4 4 4 4 4 4 4 4 4 4 3 3 3 3 3 3 3 3 3 3 3 3 2 3 3 3 3 3 2 3 3 2 2 2 2 2 2 2 2 3 3 3 3 3 3
6 5 5 5 4 4 4 4 5 5 5 6 5 5 5 5 5 5 4 4 4 4 4 4 4 4 4 4 4 3 3 3 3 3 3 3 3 3 3 3 3 3 3 3 3 3 3 2 3 3 2 2 2 2 2 2 2 2 3 3 2 3 3
6 6 6 5 4 4 4 4 4 5 5 6 5 5 5 5 5 5 4 4 4 4 4 4 4 4 4 4 4 4 4 3 3 3 3 3 3 3 3 3 3 3 3 3 3 3 3 3 3 3 3 2 2 2 2 2 2 2 3 3 3 2 3
7 7 6 6 5 4 4 4 4 5 5 6 6 6 6 6 5 5 5 5 4 4 4 4 4 4 4 4 4 4 4 4 3 3 3 3 3 3 3 3 3 3 3 3 3 3 3 3 3 3 3 3 3 3 2 2 2 2 2 3 3 3 2
7 7 7 6 5 5 4 4 5 5 5 6 5 5 5 6 6 5 5 5 4 4 4 4 4 4 4 4 4 4 4 4 4 3 3 3 3 3 3 3 3 3 3 3 3 3 3 3 3 3 3 3 3 3 3 2 2 2 2 2 3 3 2
8 8 8 7 7 6 5 4 5 5 5 5 5 5 5 5 5 6 5 5 4 4 4 4 4 4 4 4 4 4 4 4 4 4 4 4 3 3 3 3 3 3 3 3 3 3 3 3 3 3 3 3 3 3 3 3 2 2 2 2 3 3 3
9 8 8 8 8 7 5 4 5 5 5 5 6 5 5 5 5 5 6 5 5 5 4 4 4 4 4 4 4 4 4 4 4 4 4 4 4 4 3 3 3 3 3 3 3 3 3 3 3 3 3 3 3 3 3 3 3 2 2 2 2 3 3
10 10 10 10 9 8 7 6 5 5 5 6 7 7 6 6 5 5 5 5 5 5 5 5 5 4 4 5 4 4 4 4 4 4 4 4 4 4 4 4 4 3 3 3 3 3 3 3 3 3 3 3 3 3 3 3 3 2 2 3 3 3 3
11 11 12 13 13 11 10 8 7 6 6 6 7 8 8 7 6 6 6 5 5 5 5 5 5 5 5 5 5 5 4 4 4 4 4 4 4 4 4 4 3 4 3 3 4 4 3 4 3 3 3 3 3 3 3 3 3 3 2 3 3 3 3
11 10 10 11 12 12 11 9 8 7 7 7 7 7 8 8 7 6 6 6 5 5 5 5 5 5 5 5 5 5 4 4 4 4 4 4 4 4 4 4 3 4 4 3 4 4 3 4 4 3 3 3 3 3 3 3 3 3 3 3 3 3 3
11 9 9 9 10 11 12 11 10 8 7 7 7 7 8 8 7 6 6 6 5 5 5 6 5 5 5 5 5 5 5 4 4 4 4 4 4 4 4 4 4 4 4 4 4 4 4 4 4 3 3 4 3 3 3 3 3 3 3 3 3 3 3
11 10 8 8 8 9 11 11 11 10 9 8 8 7 8 8 8 7 6 6 6 6 5 6 6 5 5 5 5 5 5 5 4 5 4 4 4 4 4 4 4 4 4 4 4 4 4 4 4 4 4 4 4 3 3 3 3 3 3 3 3 3 3
11 10 8 8 7 8 9 10 10 9 9 8 8 7 7 8 8 8 7 6 6 6 6 6 6 6 5 5 5 5 5 5 5 5 5 4 5 5 4 4 4 4 4 4 4 4 4 4 4 4 4 4 4 4 3 3 3 3 3 3 3 3 3
10 10 9 8 8 7 8 8 9 9 8 8 8 7 7 7 8 8 8 7 6 6 6 6 6 6 6 5 5 5 5 5 5 5 5 5 5 5 4 4 4 4 4 4 4 4 4 4 4 4 4 4 4 4 4 3 3 3 3 3 3 3 3
13 12 10 9 9 8 8 8 8 9 9 8 8 8 7 7 7 7 7 7 6 6 6 6 6 6 6 6 5 5 5 5 5 5 5 5 5 5 5 4 4 4 4 4 4 4 4 4 4 4 4 4 4 4 4 4 3 3 3 3 3 3 3
Wind_Speed
97 97 97 97 97 97 97 97 97 97 98 98 98 98 99 99 99 100 101 102 104 105 106 108 109 110 112 113 113 113 114 115 116 117 118 119 120 120 120 120 119 116 113 117 124 126 127 130 132 133 135 137 137 138 139 140 139 139 139 139 140 141 142
93 93 93 93 93 93 93 94 94 94 94 94 93 93 93 94 95 96 97 98 100 102 103 103 104 106 107 108 108 109 110 111 112 112 112 113 114 115 116 117 116 114 111 113 119 123 123 126 129 130 132 134 135 135 136 137 138 139 139 139 139 140 141
89 89 89 89 89 90 90 90 90 90 90 90 89 89 89 90 91 92 94 95 97 98 100 100 101 102 103 104 104 104 105 106 107 107 107 107 108 109 110 113 113 112 110 110 113 119 120 122 126 128 129 132 133 134 134 135 136 137 138 139 139 139 140
86 86 86 86 86 86 86 86 87 86 86 86 85 85 85 86 88 89 91 92 94 96 97 98 98 99 100 100 100 100 101 102 102 102 103 103 104 105 105 107 109 109 108 107 109 113 117 119 123 125 127 129 131 132 133 134 134 135 137 138 139 139 140
83 83 83 84 84 84 84 83 83 83 82 82 81 81 82 84 86 87 89 90 92 93 95 96 96 96 96 95 95 96 97 98 98 98 99 100 101 102 102 102 103 104 104 104 104 107 112 116 119 122 124 127 129 130 131 132 132 134 135 136 138 139 139
80 80 80 81 81 81 81 81 80 80 79 78 78 79 80 82 83 85 87 89 90 92 93 93 93 93 92 92 91 92 93 93 94 95 96 97 98 99 100 99 99 100 100 100 100 102 107 112 116 119 122 125 128 129 129 130 131 132 133 134 136 138 139
77 77 77 77 77 77 78 77 77 76 75 75 75 76 78 79 81 83 85 87 89 91 91 90 89 89 88 88 88 89 90 90 91 91 92 93 95 96 96 96 96 97 97 96 96 98 102 107 111 115 118 122 126 127 127 128 129 130 132 133 134 136 138
74 74 74 74 74 75 74 74 74 73 72 72 73 74 76 78 79 81 83 85 87 88 88 87 86 85 84 85 86 86 87 87 88 88 89 90 91 92 92 92 93 94 95 94 93 94 97 102 106 110 114 119 123 125 126 127 128 128 130 131 132 133 135
72 72 72 72 72 72 72 72 71 70 69 69 70 72 74 76 78 80 81 83 84 85 84 83 81 81 81 82 83 84 84 84 85 86 86 87 88 88 88 88 89 91 92 92 91 91 94 97 101 105 109 114 119 122 123 126 127 126 127 129 131 131 133
70 70 70 70 70 70 70 69 68 67 66 67 68 70 73 74 77 78 79 80 80 81 80 79 77 77 78 79 80 81 81 81 82 83 83 84 85 85 84 85 86 87 89 89 89 89 91 93 96 100 105 109 114 118 120 123 125 125 126 127 129 129 131
68 69 68 68 68 68 68 67 66 65 65 66 68 69 71 73 75 77 78 77 77 76 75 74 74 74 75 76 77 78 78 78 78 79 79 80 81 82 82 82 83 85 86 86 86 87 89 90 93 97 101 105 109 114 117 120 123 124 125 126 126 127 129
67 67 67 66 66 66 66 65 64 63 63 65 67 68 69 71 73 74 75 75 74 73 72 72 73 74 74 75 74 74 74 74 75 75 75 77 78 79 80 80 81 82 83 83 83 84 86 88 91 94 98 101 105 110 113 117 120 122 123 124 125 125 128
65 65 65 64 64 64 64 63 62 61 62 63 66 67 68 69 70 71 72 72 70 68 68 69 72 74 75 74 72 71 70 70 70 71 72 74 75 76 77 78 78 80 81 81 80 81 84 87 89 92 95 99 103 106 109 112 116 119 121 123 124 125 127
64 63 63 62 61 61 61 61 59 59 60 61 63 65 66 67 69 69 69 68 65 64 64 67 70 73 74 74 71 68 67 66 67 69 70 71 73 74 74 75 76 77 78 78 78 78 81 85 87 89 93 98 101 102 104 107 112 117 119 121 123 124 126
62 62 61 59 58 58 59 58 57 57 58 59 61 63 64 66 67 67 66 63 61 60 62 65 67 70 72 73 70 67 65 65 66 66 67 68 69 71 72 73 73 75 76 76 76 76 78 82 85 86 90 95 97 98 100 104 109 113 116 118 119 121 123
61 60 59 58 56 56 56 56 55 55 56 57 60 61 62 64 65 64 62 59 58 59 60 61 63 66 69 70 69 67 65 64 64 64 64 65 67 68 69 71 72 74 74 74 74 74 76 79 81 83 86 90 93 95 97 101 104 108 111 113 115 117 119
60 59 57 56 55 54 54 54 54 54 54 56 58 59 60 61 62 61 59 57 57 56 57 58 59 62 65 68 67 66 64 62 61 62 63 63 64 66 68 70 72 72 71 71 71 72 73 76 78 80 82 86 90 92 95 98 100 101 104 107 110 112 115
59 58 56 54 53 52 52 53 53 53 54 55 57 57 57 58 58 57 56 55 54 53 53 54 56 58 61 64 65 63 62 60 59 59 61 62 63 65 68 69 69 68 68 70 70 71 72 74 77 79 80 83 87 90 92 94 95 97 101 103 105 108 112
59 58 55 53 51 50 50 50 51 51 52 54 55 55 54 54 54 55 55 53 50 49 50 51 52 54 57 60 61 61 59 58 57 57 59 61 63 64 65 65 65 66 67 68 69 70 71 73 75 77 77 79 83 86 88 90 91 95 99 99 100 104 109
58 57 55 52 50 49 48 48 48 49 50 52 54 53 51 51 52 53 54 52 48 47 48 49 49 50 52 55 57 58 57 55 54 54 57 59 60 61 62 62 63 65 65 65 66 67 69 70 72 73 75 77 79 82 85 86 88 93 96 95 97 101 107
56 56 55 52 50 48 47 46 46 47 48 50 52 50 48 48 50 51 52 51 48 46 47 47 47 48 50 52 53 54 54 53 52 52 55 56 57 58 60 60 61 62 62 63 64 65 66 68 69 71 73 75 77 79 82 83 86 89 92 93 95 100 104
56 56 54 52 49 47 46 45 44 44 45 47 48 47 45 45 46 48 49 49 47 44 44 45 46 46 48 49 50 50 51 51 50 50 52 53 54 55 57 58 58 59 59 61 62 63 64 65 67 69 70 72 74 77 79 81 83 85 88 90 93 98 102
57 57 55 53 50 47 45 44 43 42 42 44 45 44 43 43 44 45 46 46 45 43 42 42 44 45 46 47 47 48 48 48 48 48 49 50 51 52 53 55 56 56 57 58 59 61 61 62 64 66 68 70 72 75 76 78 80 83 85 88 91 95 97
58 58 57 55 52 48 45 44 42 40 40 42 43 42 42 43 43 44 44 44 42 41 41 41 42 43 44 44 44 45 46 46 46 46 46 47 48 49 50 52 53 54 55 55 56 58 59 60 61 63 65 67 69 71 73 75 78 80 83 86 89 92 94
57 57 57 56 54 51 48 45 44 41 40 41 41 40 41 42 43 43 44 42 41 40 40 39 40 41 42 42 42 42 43 44 44 44 44 45 45 46 47 49 50 51 52 53 54 55 56 57 58 60 63 65 67 69 71 73 76 78 80 83 86 89 92
56 56 57 56 55 53 51 48 46 44 41 41 40 39 37 38 40 41 42 41 39 38 38 38 38 38 39 39 40 40 40 41 41 41 41 42 43 43 45 46 47 49 50 51 51 52 54 55 56 59 61 62 64 67 69 71 73 75 76 79 83 86 89
54 55 55 55 55 55 53 51 48 45 43 41 41 39 37 36 37 39 40 41 39 37 37 37 36 36 37 37 37 38 38 38 39 39 39 39 40 41 42 43 45 46 48 49 49 50 51 53 55 57 58 60 62 65 67 68 70 72 73 76 79 83 86
52 52 53 53 54 54 55 54 50 47 45 44 44 43 41 39 38 37 37 38 39 38 37 36 35 35 35 35 35 35 36 36 37 37 37 37 38 38 40 41 43 44 46 47 47 48 49 51 53 54 56 58 60 62 64 66 68 69 71 73 75 80 84
49 50 51 52 52 53 55 56 55 52 48 46 45 46 46 44 42 40 38 37 37 37 36 36 35 34 34 34 34 34 34 34 35 35 36 36 36 36 38 39 41 42 43 44 45 46 47 49 51 52 54 55 58 60 62 64 66 67 69 70 73 78 81
46 46 46 47 48 49 51 54 55 53 50 47 44 44 45 45 44 42 41 38 36 36 36 35 35 34 33 33 33 32 32 33 33 34 34 35 35 35 36 37 38 40 41 42 43 44 46 47 49 50 52 54 55 57 60 62 64 65 67 69 72 75 78
44 43 42 42 42 43 46 49 52 53 51 48 45 43 43 44 42 40 40 39 37 35 35 35 34 33 33 32 31 31 31 31 32 32 33 34 34 34 34 35 37 38 40 41 41 43 44 45 47 48 50 52 53 56 58 60 62 63 65 67 70 72 74
45 44 42 40 39 39 41 44 48 51 51 49 46 43 43 44 43 40 38 37 37 35 34 34 33 33 32 31 30 30 30 30 31 31 32 33 33 33 33 34 35 37 38 39 40 41 42 44 45 47 48 50 52 54 56 58 60 62 63 65 67 68 70
44 44 43 41 39 37 38 39 42 46 48 48 46 43 41 42 43 42 38 36 35 35 34 33 32 32 31 30 29 29 29 29 30 30 31 31 32 32 32 33 34 35 37 38 39 40 41 42 44 45 47 48 50 52 54 56 58 59 61 62 64 65 67
45 44 44 43 41 38 37 37 39 41 44 45 45 43 40 38 39 41 40 37 34 33 33 32 31 31 30 29 28 28 28 28 28 29 30 30 31 31 31 32 32 33 35 36 38 39 40 41 42 43 45 46 48 51 53 54 56 57 59 60 61 63 65
49 47 45 44 43 41 39 38 39 40 42 44 44 43 41 38 36 36 38 37 35 33 32 31 31 30 30 29 28 27 27 27 27 28 28 29 30 30 30 30 31 32 33 34 36 37 38 39 40 41 43 45 47 49 51 52 54 55 56 58 59 60 62
52 50 48 45 44 42 40 39 38 39 40 41 43 43 42 41 38 35 34 35 34 33 31 30 30 29 29 28 27 26 26 26 26 26 27 28 28 28 29 29 29 30 31 33 34 35 36 37 38 40 41 43 44 46 48 50 52 53 54 56 57 58 60
Wind_Direction
283 282 281 280 279 278 277 276 275 274 273 272 272 271 271 271 270 269 268 267 267 266 265 264 263 262 262 261 260 260 259 258 257 256 255 254 254 254 253 252 251 249 246 246 247 247 246 246 245 245 245 245 244 243 242 241 241 240 239 238 238 237 238
283 282 281 280 279 278 277 277 276 275 274 274 273 272 272 271 270 269 269 268 267 266 265 264 263 262 262 261 260 260 260 259 258 257 256 255 254 254 253 253 251 249 247 245 246 246 246 246 246 245 244 244 244 243 242 241 240 240 239 238 237 237 237
283 282 281 280 280 279 278 277 276 276 275 274 274 273 273 272 271 270 269 268 267 266 265 264 263 262 262 261 261 260 259 259 259 259 258 257 256 254 253 252 251 250 247 245 244 245 245 245 245 245 244 244 243 243 242 241 240 239 239 238 237 236 236
284 283 282 281 280 280 279 278 277 277 276 275 275 274 274 273 271 270 269 268 267 266 265 264 263 262 262 261 261 261 260 260 259 259 258 258 257 255 254 252 251 249 247 245 243 243 244 244 244 244 244 244 243 242 242 241 240 239 238 237 237 236 235
285 284 283 282 281 280 280 279 278 277 277 277 276 275 274 273 272 271 269 268 267 266 265 265 264 263 263 262 262 261 261 260 259 259 258 257 256 256 254 253 251 249 247 245 242 242 242 242 242 243 243 243 243 242 241 240 240 239 238 237 236 236 235
286 285 284 283 283 282 281 280 279 279 278 278 277 276 275 273 272 271 270 269 268 267 266 265 265 265 264 264 263 262 261 260 259 259 258 257 256 255 254 253 252 250 248 245 243 241 241 241 241 241 241 241 242 242 241 240 239 238 238 237 236 235 234
287 286 286 285 284 283 282 282 281 280 280 279 278 277 275 274 273 271 270 270 269 268 267 267 266 266 266 265 264 263 262 261 260 259 258 257 256 255 254 253 253 251 249 247 244 242 241 240 239 239 239 240 240 240 240 240 239 238 237 236 235 235 234
289 288 287 287 286 285 284 283 283 282 282 281 280 278 276 275 273 272 271 270 269 269 268 268 268 268 267 266 265 264 263 262 261 259 258 257 256 255 254 253 252 251 250 248 245 243 241 241 239 238 238 238 239 239 239 239 238 237 236 236 235 234 234
291 290 289 288 288 287 286 285 285 284 284 282 280 278 276 275 273 272 271 270 270 270 270 269 269 269 268 267 266 265 263 262 261 260 259 258 257 255 254 253 252 251 250 248 246 244 242 241 240 239 237 237 238 238 238 238 238 237 236 236 235 234 233
293 292 291 290 289 289 288 287 287 286 285 283 280 278 276 275 274 273 272 271 271 271 271 271 270 269 268 266 265 264 263 262 261 260 259 259 258 257 255 254 252 251 249 248 246 244 242 241 240 239 238 237 237 237 237 237 237 237 236 235 235 234 233
295 293 293 292 291 291 290 289 289 288 286 283 280 278 276 275 274 274 274 274 273 273 273 273 272 269 267 265 264 263 263 262 261 260 260 259 258 257 256 254 253 251 249 247 245 244 243 241 240 239 239 237 237 236 236 236 236 236 235 235 234 233 233
296 295 294 294 293 292 291 290 290 288 286 283 281 279 277 276 275 274 275 275 275 275 275 274 273 271 268 266 264 263 262 262 262 261 260 259 258 257 256 254 252 251 250 247 245 243 242 241 239 239 238 237 237 236 235 235 235 235 235 235 234 233 233
297 296 296 295 294 294 292 291 290 288 285 283 281 279 278 277 276 275 275 275 275 276 276 275 273 272 270 268 266 264 263 262 262 261 259 258 258 256 255 254 253 251 250 248 245 243 242 240 239 238 237 237 236 236 235 234 234 235 234 234 233 233 232
299 298 297 297 296 295 293 292 291 289 286 284 282 281 279 278 277 276 276 276 277 276 275 273 272 271 270 269 268 267 265 264 262 260 259 258 257 256 255 254 253 252 250 249 246 243 242 241 239 237 237 237 236 236 235 234 233 234 233 233 232 232 232
301 300 299 299 298 296 295 293 292 290 288 286 283 282 281 280 279 278 278 278 278 275 273 271 270 270 270 271 270 268 267 265 262 261 259 258 257 256 255 254 253 251 250 249 247 244 243 242 240 238 237 237 237 236 235 235 234 233 233 233 232 232 232
303 302 302 301 300 298 296 295 293 291 289 287 285 283 282 281 281 281 281 280 278 275 272 271 270 270 270 270 270 268 267 265 263 262 260 258 257 255 254 253 252 250 249 248 247 245 243 242 241 239 238 238 237 236 235 235 234 234 233 233 233 232 232
305 305 304 303 302 300 298 296 295 293 290 288 285 284 284 283 283 283 283 281 278 276 274 272 270 270 269 269 269 268 267 265 264 263 261 259 257 255 253 252 250 249 249 248 246 245 244 243 242 239 238 237 237 236 235 235 234 234 234 233 232 232 232
307 306 305 304 303 301 300 298 296 294 292 289 287 286 286 286 286 285 283 280 278 276 274 271 269 268 268 269 269 268 267 265 263 261 260 258 256 254 252 252 251 250 249 247 245 243 242 241 241 239 237 236 236 236 235 234 234 234 233 232 231 231 231
309 308 307 306 305 303 301 299 297 295 293 291 290 289 289 289 289 287 284 282 280 278 275 272 270 268 267 268 268 267 266 264 262 260 259 257 256 254 253 253 252 251 249 247 246 244 242 241 241 240 238 236 236 236 235 234 233 233 233 232 230 230 230
311 309 308 308 306 304 302 300 299 297 296 294 293 293 293 293 291 289 287 285 283 281 278 275 272 270 269 267 267 267 266 264 262 260 258 256 256 255 254 252 251 250 249 248 246 245 244 242 241 240 239 237 236 235 235 234 233 233 232 231 230 230 229
312 311 309 309 308 306 304 303 301 300 298 296 295 296 296 294 292 290 288 287 286 284 281 278 276 273 270 268 267 267 266 264 262 260 258 257 255 255 254 252 250 249 249 248 246 244 243 242 241 240 239 238 236 235 234 233 232 232 232 231 230 230 229
315 313 311 310 309 308 306 304 302 301 299 298 297 297 296 294 291 290 289 288 287 285 282 280 277 274 272 270 269 267 266 264 262 260 258 257 256 254 254 253 251 249 248 247 246 244 243 242 241 240 239 238 237 235 234 232 232 231 231 230 230 230 230
317 315 314 313 311 310 307 305 304 303 302 301 300 300 298 295 292 291 289 288 288 286 283 280 277 275 273 271 270 268 267 265 263 261 259 257 256 255 254 253 251 250 248 247 246 245 243 241 241 240 239 238 237 236 235 233 231 231 231 230 230 230 230
318 316 315 314 313 312 310 309 308 308 307 305 305 304 302 299 297 295 293 291 290 288 284 281 278 276 274 272 270 269 267 265 263 261 259 257 256 254 253 253 252 250 249 247 246 245 244 242 240 240 239 238 237 237 236 234 232 230 230 230 229 229 229
318 317 316 315 315 314 314 313 313 312 311 310 308 306 305 302 299 297 296 294 292 289 286 282 279 277 275 273 271 269 268 266 264 262 260 258 256 254 253 252 252 251 249 247 246 244 243 242 240 239 239 238 237 236 235 234 233 231 229 229 230 229 229
317 317 316 316 317 317 316 316 316 315 314 312 309 306 305 303 301 300 298 296 293 290 287 284 280 278 276 274 272 270 268 267 265 263 260 258 257 255 253 252 251 250 249 248 246 244 243 242 240 239 238 237 236 236 235 234 234 232 230 229 230 230 229
319 318 317 318 318 317 317 316 316 316 316 315 312 310 308 307 305 303 301 298 296 292 289 286 283 280 278 276 273 272 270 268 266 264 262 259 257 255 254 252 251 250 248 247 245 244 242 241 240 238 237 237 236 236 235 234 234 233 231 229 229 230 230
320 319 318 317 318 317 317 317 318 318 319 319 318 315 314 312 310 306 303 300 297 295 292 288 286 283 280 278 276 273 271 269 267 265 263 261 258 256 254 252 251 249 248 247 245 243 242 240 239 238 237 236 235 235 235 234 233 232 231 229 228 228 229
321 320 320 319 319 319 318 318 318 319 320 320 320 317 315 314 313 310 306 302 298 296 293 290 288 285 283 280 278 275 273 271 269 267 265 262 260 257 254 253 251 250 248 247 245 243 241 240 239 238 237 235 235 234 234 234 233 232 231 229 228 228 228
322 322 321 319 319 318 316 315 316 316 317 318 318 316 313 312 311 310 307 304 300 297 294 292 289 287 285 282 279 277 274 272 270 268 266 264 261 258 255 253 252 250 248 247 245 243 241 240 239 237 236 235 234 234 234 233 232 231 230 229 228 228 228
322 321 319 317 317 316 315 314 313 314 315 316 316 315 313 311 309 308 306 304 301 298 295 292 290 288 286 283 280 277 275 273 271 268 266 264 262 260 257 254 251 250 248 246 244 242 241 239 238 237 236 235 234 233 233 233 232 231 230 229 229 228 228
323 322 320 318 317 317 316 315 313 313 313 314 315 316 314 311 309 308 305 303 301 298 296 293 291 289 287 284 281 278 276 273 271 269 267 265 262 260 257 254 251 249 247 245 244 242 240 239 238 237 235 234 234 233 233 232 232 231 230 230 229 228 228
325 323 322 321 320 319 317 314 312 311 311 312 314 315 314 312 310 309 307 304 301 299 297 294 292 290 287 284 281 279 276 274 272 270 268 265 263 260 257 254 251 248 247 245 243 241 240 238 237 236 235 234 233 233 232 232 231 231 230 230 229 228 228
327 326 325 324 322 320 318 315 312 310 310 311 312 313 313 312 309 308 307 305 302 299 297 295 292 290 288 285 282 279 276 274 272 270 268 266 263 260 257 254 252 249 246 244 243 241 239 238 236 235 235 234 233 233 232 232 231 231 230 229 229 228 227
328 328 327 326 324 323 321 319 316 314 313 313 313 314 314 313 310 307 306 305 303 300 298 295 293 291 288 285 282 279 277 275 272 270 268 266 262 259 257 254 252 249 247 244 242 241 239 237 236 235 234 233 233 232 232 232 231 230 229 229 228 227 227
328 328 328 328 326 325 323 322 319 317 315 314 314 314 315 315 313 310 307 304 303 301 299 296 294 291 288 285 282 279 277 275 272 270 268 265 262 258 256 254 252 249 247 244 242 240 238 236 235 233 232 232 232 231 231 231 231 230 229 229 228 227 226